Time,TemperatureF,DewpointF,PressureIn,WindDirection,WindDirectionDegrees,WindSpeedMPH,WindSpeedGustMPH,Humidity,HourlyPrecipIn,Conditions,Clouds,dailyrainin,SoftwareType,DateUTC
2013-05-14 00:23:00,48.0,34.0,30.19,South,190,0.0,0.0,57,0.00,,,0.01,,2013-05-14 04:23:00,
2013-05-14 00:32:00,48.0,34.0,30.19,South,190,0.0,0.0,59,0.00,,,0.01,,2013-05-14 04:32:00,
2013-05-14 00:43:00,48.0,34.0,30.19,South,190,0.0,0.0,59,0.00,,,0.01,,2013-05-14 04:43:00,
2013-05-14 00:53:00,47.0,34.0,30.20,South,190,0.0,0.0,60,0.00,,,0.01,,2013-05-14 04:53:00,
2013-05-14 01:02:00,47.0,34.0,30.20,South,190,0.0,0.0,60,0.00,,,0.01,,2013-05-14 05:02:00,
2013-05-14 01:12:00,47.0,34.0,30.20,South,190,0.0,0.0,60,0.00,,,0.01,,2013-05-14 05:12:00,
2013-05-14 01:22:00,46.0,36.0,30.19,South,190,0.0,0.0,67,0.00,,,0.01,,2013-05-14 05:22:00,
2013-05-14 01:32:00,46.0,36.0,30.19,South,190,0.0,0.0,69,0.00,,,0.01,,2013-05-14 05:32:00,
2013-05-14 01:42:00,46.0,36.0,30.19,South,190,0.0,0.0,69,0.00,,,0.01,,2013-05-14 05:42:00,
2013-05-14 01:52:00,46.0,36.0,30.19,South,190,0.0,0.0,69,0.00,,,0.01,,2013-05-14 05:52:00,
2013-05-14 02:01:00,46.0,36.0,30.19,South,190,0.0,0.0,69,0.00,,,0.01,,2013-05-14 06:01:00,
2013-05-14 02:52:00,44.0,34.0,30.20,South,190,0.0,0.0,69,0.00,,,0.00,,2013-05-14 06:52:00,
2013-05-14 03:02:00,44.0,34.0,30.20,South,190,0.0,0.0,69,0.00,,,0.00,,2013-05-14 07:02:00,
2013-05-14 03:11:00,44.0,34.0,30.20,South,190,0.0,0.0,69,0.00,,,0.00,,2013-05-14 07:11:00,
2013-05-14 03:21:00,44.0,35.0,30.20,South,190,0.0,0.0,70,0.00,,,0.00,,2013-05-14 07:21:00,
2013-05-14 03:32:00,44.0,35.0,30.20,South,190,0.0,0.0,71,0.00,,,0.00,,2013-05-14 07:32:00,
2013-05-14 03:42:00,43.0,35.0,30.20,South,190,0.0,0.0,74,0.00,,,0.00,,2013-05-14 07:42:00,
2013-05-14 03:52:00,43.0,35.0,30.20,South,190,0.0,0.0,74,0.00,,,0.00,,2013-05-14 07:52:00,
2013-05-14 04:02:00,43.0,35.0,30.20,South,190,0.0,0.0,74,0.00,,,0.00,,2013-05-14 08:02:00,
2013-05-14 04:11:00,43.0,35.0,30.20,South,190,0.0,0.0,74,0.00,,,0.00,,2013-05-14 08:11:00,
2013-05-14 04:21:00,43.0,35.0,30.20,South,190,0.0,0.0,74,0.00,,,0.00,,2013-05-14 08:21:00,
2013-05-14 05:02:00,42.0,34.0,30.21,South,190,0.0,0.0,74,0.00,,,0.00,,2013-05-14 09:02:00,
2013-05-14 05:11:00,42.0,34.0,30.21,South,190,0.0,0.0,74,0.00,,,0.00,,2013-05-14 09:11:00,
2013-05-14 05:22:00,42.0,34.0,30.21,South,190,0.0,0.0,74,0.00,,,0.00,,2013-05-14 09:22:00,
2013-05-14 05:32:00,42.0,34.0,30.21,South,190,0.0,0.0,74,0.00,,,0.00,,2013-05-14 09:32:00,
2013-05-14 05:44:00,42.0,35.0,30.22,South,190,0.0,0.0,76,0.00,,,0.00,,2013-05-14 09:44:00,
2013-05-14 05:54:00,42.0,35.0,30.22,South,190,0.0,0.0,76,0.00,,,0.00,,2013-05-14 09:54:00,
2013-05-14 06:05:00,42.0,35.0,30.21,South,190,0.0,0.0,75,0.00,,,0.00,,2013-05-14 10:05:00,
2013-05-14 06:14:00,42.0,35.0,30.21,South,190,0.0,0.0,75,0.00,,,0.00,,2013-05-14 10:14:00,
2013-05-14 06:25:00,42.0,35.0,30.22,South,190,0.0,0.0,75,0.00,,,0.00,,2013-05-14 10:25:00,
2013-05-14 06:33:00,42.0,34.0,30.22,South,190,0.0,0.0,74,0.00,,,0.00,,2013-05-14 10:33:00,
2013-05-14 06:42:00,42.0,34.0,30.22,South,190,0.0,0.0,74,0.00,,,0.00,,2013-05-14 10:42:00,
2013-05-14 06:53:00,41.0,35.0,30.22,South,190,0.0,0.0,78,0.00,,,0.00,,2013-05-14 10:53:00,
2013-05-14 07:02:00,41.0,35.0,30.22,South,190,0.0,0.0,78,0.00,,,0.00,,2013-05-14 11:02:00,
2013-05-14 07:11:00,41.0,35.0,30.22,South,190,0.0,0.0,78,0.00,,,0.00,,2013-05-14 11:11:00,
2013-05-14 07:22:00,41.0,34.0,30.24,South,190,0.0,0.0,77,0.00,,,0.00,,2013-05-14 11:22:00,
2013-05-14 07:32:00,42.0,35.0,30.24,South,190,0.0,0.0,75,0.00,,,0.00,,2013-05-14 11:32:00,
2013-05-14 07:43:00,42.0,35.0,30.24,South,190,0.0,0.0,75,0.00,,,0.00,,2013-05-14 11:43:00,
2013-05-14 07:53:00,41.0,35.0,30.24,South,190,0.0,0.0,78,0.00,,,0.00,,2013-05-14 11:53:00,
2013-05-14 08:03:00,41.0,34.0,30.24,South,190,0.0,0.0,77,0.00,,,0.00,,2013-05-14 12:03:00,
2013-05-14 08:12:00,41.0,34.0,30.24,South,190,0.0,0.0,77,0.00,,,0.00,,2013-05-14 12:12:00,
2013-05-14 08:21:00,41.0,33.0,30.24,South,190,0.0,0.0,74,0.00,,,0.00,,2013-05-14 12:21:00,
2013-05-14 08:32:00,41.0,33.0,30.24,South,190,0.0,0.0,74,0.00,,,0.00,,2013-05-14 12:32:00,
2013-05-14 08:42:00,41.0,33.0,30.24,South,190,0.0,0.0,74,0.00,,,0.00,,2013-05-14 12:42:00,
2013-05-14 08:52:00,44.0,37.0,30.24,South,190,0.0,0.0,75,0.00,,,0.00,,2013-05-14 12:52:00,
2013-05-14 09:01:00,44.0,36.0,30.24,South,190,0.0,0.0,74,0.00,,,0.00,,2013-05-14 13:01:00,
2013-05-14 09:11:00,44.0,36.0,30.24,South,190,0.0,0.0,74,0.00,,,0.00,,2013-05-14 13:11:00,
2013-05-14 09:22:00,44.0,36.0,30.24,South,190,0.0,0.0,74,0.00,,,0.00,,2013-05-14 13:22:00,
2013-05-14 09:32:00,47.0,37.0,30.24,South,190,0.0,0.0,69,0.00,,,0.00,,2013-05-14 13:32:00,
2013-05-14 09:42:00,47.0,37.0,30.24,South,190,0.0,0.0,69,0.00,,,0.00,,2013-05-14 13:42:00,
2013-05-14 09:52:00,47.0,37.0,30.24,South,190,0.0,0.0,69,0.00,,,0.00,,2013-05-14 13:52:00,
2013-05-14 10:01:00,50.0,39.0,30.24,South,190,0.0,0.0,65,0.00,,,0.00,,2013-05-14 14:01:00,
2013-05-14 10:11:00,51.0,37.0,30.24,South,190,0.0,0.0,58,0.00,,,0.00,,2013-05-14 14:11:00,
2013-05-14 10:22:00,51.0,37.0,30.24,South,190,0.0,0.0,58,0.00,,,0.00,,2013-05-14 14:22:00,
2013-05-14 10:32:00,52.0,38.0,30.24,South,190,0.0,0.0,59,0.00,,,0.00,,2013-05-14 14:32:00,
2013-05-14 10:42:00,52.0,38.0,30.24,South,190,0.0,0.0,59,0.00,,,0.00,,2013-05-14 14:42:00,
2013-05-14 10:53:00,54.0,39.0,30.23,South,190,0.0,0.0,56,0.00,,,0.00,,2013-05-14 14:53:00,
2013-05-14 11:01:00,54.0,39.0,30.23,South,190,0.0,0.0,56,0.00,,,0.00,,2013-05-14 15:01:00,
2013-05-14 11:12:00,54.0,39.0,30.23,South,190,0.0,0.0,56,0.00,,,0.00,,2013-05-14 15:12:00,
2013-05-14 11:22:00,54.0,39.0,30.23,South,190,0.0,0.0,56,0.00,,,0.00,,2013-05-14 15:22:00,
2013-05-14 11:43:00,60.0,42.0,30.22,South,190,0.0,0.0,52,0.00,,,0.00,,2013-05-14 15:43:00,
2013-05-14 11:53:00,60.0,42.0,30.22,South,190,0.0,0.0,52,0.00,,,0.00,,2013-05-14 15:53:00,
2013-05-14 12:02:00,60.0,42.0,30.22,South,190,0.0,0.0,52,0.00,,,0.00,,2013-05-14 16:02:00,
2013-05-14 12:12:00,60.0,42.0,30.22,South,190,0.0,0.0,52,0.00,,,0.00,,2013-05-14 16:12:00,
2013-05-14 12:23:00,62.0,43.0,30.22,South,190,0.0,0.0,50,0.00,,,0.00,,2013-05-14 16:23:00,
2013-05-14 12:33:00,63.0,45.0,30.22,South,190,0.0,0.0,51,0.00,,,0.00,,2013-05-14 16:33:00,
2013-05-14 12:44:00,63.0,45.0,30.22,South,190,0.0,0.0,51,0.00,,,0.00,,2013-05-14 16:44:00,
2013-05-14 12:54:00,66.0,46.0,30.20,South,190,0.0,0.0,49,0.00,,,0.00,,2013-05-14 16:54:00,
2013-05-14 13:03:00,67.0,46.0,30.19,South,190,0.0,0.0,47,0.00,,,0.00,,2013-05-14 17:03:00,
2013-05-14 13:13:00,67.0,46.0,30.19,South,190,0.0,0.0,47,0.00,,,0.00,,2013-05-14 17:13:00,
2013-05-14 13:24:00,68.0,44.0,30.19,South,190,0.0,0.0,42,0.00,,,0.00,,2013-05-14 17:24:00,
2013-05-14 13:33:00,69.0,47.0,30.19,South,190,0.0,0.0,45,0.00,,,0.00,,2013-05-14 17:33:00,
2013-05-14 13:42:00,69.0,47.0,30.17,South,190,0.0,0.0,46,0.00,,,0.00,,2013-05-14 17:42:00,
2013-05-14 13:43:00,69.0,47.0,30.19,South,190,0.0,0.0,45,0.00,,,0.00,,2013-05-14 17:43:00,
2013-05-14 13:52:00,69.0,47.0,30.19,South,190,0.0,0.0,45,0.00,,,0.00,,2013-05-14 17:52:00,
2013-05-14 14:02:00,69.0,47.0,30.17,South,190,0.0,0.0,46,0.00,,,0.00,,2013-05-14 18:02:00,
2013-05-14 14:12:00,69.0,47.0,30.17,South,190,0.0,0.0,46,0.00,,,0.00,,2013-05-14 18:12:00,
2013-05-14 14:22:00,69.0,47.0,30.17,South,190,0.0,0.0,46,0.00,,,0.00,,2013-05-14 18:22:00,
2013-05-14 14:32:00,69.0,47.0,30.17,South,190,0.0,0.0,46,0.00,,,0.00,,2013-05-14 18:32:00,
2013-05-14 15:22:00,71.0,48.0,30.13,South,190,0.0,0.0,44,0.00,,,0.00,,2013-05-14 19:22:00,
2013-05-14 15:32:00,71.0,48.0,30.13,South,190,0.0,0.0,44,0.00,,,0.00,,2013-05-14 19:32:00,
2013-05-14 15:42:00,71.0,48.0,30.13,South,190,0.0,0.0,44,0.00,,,0.00,,2013-05-14 19:42:00,
2013-05-14 15:53:00,72.0,48.0,30.12,South,190,0.0,0.0,43,0.00,,,0.00,,2013-05-14 19:53:00,
2013-05-14 16:02:00,72.0,48.0,30.12,South,190,0.0,0.0,42,0.00,,,0.00,,2013-05-14 20:02:00,
2013-05-14 16:11:00,72.0,48.0,30.12,South,190,0.0,0.0,42,0.00,,,0.00,,2013-05-14 20:11:00,
2013-05-14 16:23:00,72.0,48.0,30.12,South,190,0.0,0.0,42,0.00,,,0.00,,2013-05-14 20:23:00,
2013-05-14 16:33:00,72.0,48.0,30.12,South,190,0.0,0.0,42,0.00,,,0.00,,2013-05-14 20:33:00,
2013-05-14 17:32:00,71.0,49.0,30.10,South,190,0.0,0.0,46,0.00,,,0.00,,2013-05-14 21:32:00,
2013-05-14 17:53:00,71.0,49.0,30.10,South,190,0.0,0.0,46,0.00,,,0.00,,2013-05-14 21:53:00,
2013-05-14 18:03:00,71.0,49.0,30.10,South,190,0.0,0.0,46,0.00,,,0.00,,2013-05-14 22:03:00,
2013-05-14 18:13:00,71.0,49.0,30.10,South,190,0.0,0.0,46,0.00,,,0.00,,2013-05-14 22:13:00,
2013-05-14 18:24:00,71.0,49.0,30.10,South,190,0.0,0.0,46,0.00,,,0.00,,2013-05-14 22:24:00,
2013-05-14 18:55:00,70.0,48.0,30.09,South,190,0.0,0.0,45,0.00,,,0.00,,2013-05-14 22:55:00,
2013-05-14 19:04:00,70.0,49.0,30.09,South,190,0.0,0.0,47,0.00,,,0.00,,2013-05-14 23:04:00,
2013-05-14 19:12:00,70.0,49.0,30.09,South,190,0.0,0.0,47,0.00,,,0.00,,2013-05-14 23:12:00,
2013-05-14 19:22:00,70.0,48.0,30.09,South,190,0.0,0.0,46,0.00,,,0.00,,2013-05-14 23:22:00,
2013-05-14 19:32:00,69.0,48.0,30.08,South,190,0.0,0.0,47,0.00,,,0.00,,2013-05-14 23:32:00,
2013-05-14 19:44:00,69.0,48.0,30.08,South,190,0.0,0.0,47,0.00,,,0.00,,2013-05-14 23:44:00,
2013-05-14 19:52:00,68.0,50.0,30.08,South,190,0.0,0.0,52,0.00,,,0.00,,2013-05-14 23:52:00,
2013-05-14 20:02:00,68.0,50.0,30.08,South,190,0.0,0.0,52,0.00,,,0.00,,2013-05-15 00:02:00,
2013-05-14 20:11:00,68.0,50.0,30.08,South,190,0.0,0.0,52,0.00,,,0.00,,2013-05-15 00:11:00,
2013-05-14 20:21:00,67.0,49.0,30.08,South,190,0.0,0.0,53,0.00,,,0.00,,2013-05-15 00:21:00,
2013-05-14 20:32:00,67.0,49.0,30.09,South,190,0.0,0.0,53,0.00,,,0.00,,2013-05-15 00:32:00,
2013-05-14 20:42:00,67.0,49.0,30.09,South,190,0.0,0.0,53,0.00,,,0.00,,2013-05-15 00:42:00,
2013-05-14 20:52:00,65.0,49.0,30.09,South,190,0.0,0.0,56,0.00,,,0.00,,2013-05-15 00:52:00,
2013-05-14 21:01:00,65.0,49.0,30.09,South,190,0.0,0.0,56,0.00,,,0.00,,2013-05-15 01:01:00,
2013-05-14 21:11:00,65.0,49.0,30.09,South,190,0.0,0.0,56,0.00,,,0.00,,2013-05-15 01:11:00,
2013-05-14 21:22:00,63.0,51.0,30.09,South,190,0.0,0.0,65,0.00,,,0.00,,2013-05-15 01:22:00,
2013-05-14 21:32:00,62.0,50.0,30.10,South,190,0.0,0.0,65,0.00,,,0.00,,2013-05-15 01:32:00,
2013-05-14 21:42:00,62.0,50.0,30.10,South,190,0.0,0.0,65,0.00,,,0.00,,2013-05-15 01:42:00,
2013-05-14 21:52:00,62.0,50.0,30.10,South,190,0.0,0.0,65,0.00,,,0.00,,2013-05-15 01:52:00,
2013-05-14 22:02:00,62.0,50.0,30.10,South,190,0.0,0.0,65,0.00,,,0.00,,2013-05-15 02:02:00,
2013-05-14 22:11:00,62.0,50.0,30.10,South,190,0.0,0.0,65,0.00,,,0.00,,2013-05-15 02:11:00,
2013-05-14 22:32:00,60.0,50.0,30.10,South,190,0.0,0.0,70,0.00,,,0.00,,2013-05-15 02:32:00,
2013-05-14 22:52:00,60.0,50.0,30.10,South,190,0.0,0.0,70,0.00,,,0.00,,2013-05-15 02:52:00,
2013-05-14 23:01:00,60.0,50.0,30.10,South,190,0.0,0.0,70,0.00,,,0.00,,2013-05-15 03:01:00,
2013-05-14 23:13:00,60.0,50.0,30.10,South,190,0.0,0.0,70,0.00,,,0.00,,2013-05-15 03:13:00,
2013-05-14 23:22:00,60.0,50.0,30.10,South,190,0.0,0.0,70,0.00,,,0.00,,2013-05-15 03:22:00,
2013-05-14 23:32:00,60.0,50.0,30.10,South,190,0.0,0.0,70,0.00,,,0.00,,2013-05-15 03:32:00,
2013-05-14 23:44:00,60.0,50.0,30.10,South,190,0.0,0.0,70,0.00,,,0.00,,2013-05-15 03:44:00,
2013-05-14 23:54:00,60.0,50.0,30.10,South,190,0.0,0.0,70,0.00,,,0.00,,2013-05-15 03:54:00,